Torna al catalogo

COSMOS 839 DEB

AttivoUNKNOWN
NORAD 18428·DEBRIS·🇷🇺 Russia

Lanciato Jul 8, 1976 da Plesetsk Cosmodrome

Loading…

Prossimi Passaggi (prossime 24 ore)

TLE

AggiornatoSource: Space-Track

Epoca: Sep 13, 2026, 18:13 UTC

1 18428U 76067BM  26256.75912103  .00001612  00000-0  45528-2 0  9994
2 18428  65.7328  12.8143 0775991 252.6287 268.2280 12.37497341613802

Traccia COSMOS 839 DEB in tempo reale con AllMySat

Download on the App Store